| time (UTC) | temp C | wind direction | speed KPH | gust KPH | rain 1hr cm | rain 24hr cm | rain mn cm | humidity % | barometer mb |
| 20260509034154 | 13 | 86 | 0.0 | 0.0 | 0.00 | 0.00 | 0.00 | 81 | 1010.6 |
| 20260509033651 | 13 | 83 | 1.6 | 1.6 | 0.00 | 0.00 | 0.00 | 81 | 1010.6 |
| 20260509033148 | 13 | 87 | 0.0 | 1.6 | 0.00 | 0.00 | 0.00 | 80 | 1011.0 |
| 20260509032645 | 13 | 87 | 0.0 | 0.0 | 0.00 | 0.00 | 0.00 | 80 | 1010.9 |
| 20260509032142 | 13 | 91 | 0.0 | 0.0 | 0.00 | 0.00 | 0.00 | 80 | 1010.9 |
| 20260509031639 | 13 | 96 | 1.6 | 1.6 | 0.00 | 0.00 | 0.00 | 80 | 1011.1 |
| 20260509031136 | 13 | 103 | 0.0 | 0.0 | 0.00 | 0.00 | 0.00 | 80 | 1011.1 |
| 20260509030635 | 13 | 89 | 0.0 | 0.0 | 0.00 | 0.00 | 0.00 | 79 | 1011.1 |
| 20260509030132 | 13 | 107 | 1.6 | 1.6 | 0.00 | 0.00 | 0.00 | 78 | 1011.0 |
| 20260509025628 | 13 | 56 | 3.2 | 3.2 | 0.00 | 0.00 | 0.00 | 78 | 1010.9 |
| 20260509025124 | 13 | 65 | 3.2 | 3.2 | 0.00 | 0.00 | 0.00 | 77 | 1011.3 |
| 20260509024619 | 13 | 49 | 1.6 | 1.6 | 0.00 | 0.00 | 0.00 | 77 | 1011.4 |
| 20260509024115 | 13 | 75 | 3.2 | 3.2 | 0.00 | 0.00 | 0.00 | 77 | 1011.2 |
| 20260509023614 | 13 | 74 | 1.6 | 3.2 | 0.00 | 0.00 | 0.00 | 77 | 1011.1 |
| 20260509023110 | 14 | 76 | 1.6 | 1.6 | 0.00 | 0.00 | 0.00 | 76 | 1011.4 |
| 20260509022606 | 14 | 51 | 4.8 | 8.0 | 0.00 | 0.00 | 0.00 | 75 | 1011.2 |
| 20260509022105 | 15 | 49 | 4.8 | 4.8 | 0.00 | 0.00 | 0.00 | 73 | 1011.2 |
| 20260509021601 | 15 | 85 | 1.6 | 1.6 | 0.00 | 0.00 | 0.00 | 71 | 1010.9 |
| 20260509021058 | 15 | 59 | 3.2 | 3.2 | 0.00 | 0.00 | 0.00 | 68 | 1010.7 |
| 20260509020557 | 15 | 89 | 0.0 | 0.0 | 0.00 | 0.00 | 0.00 | 66 | 1010.6 |
| 20260509020053 | 16 | 90 | 0.0 | 0.0 | 0.00 | 0.00 | 0.00 | 65 | 1010.3 |
| 20260509015552 | 16 | 90 | 0.0 | 0.0 | 0.00 | 0.00 | 0.00 | 63 | 1010.4 |
| 20260509015049 | 16 | 90 | 0.0 | 0.0 | 0.00 | 0.00 | 0.00 | 61 | 1010.3 |
| 20260509014546 | 15 | 90 | 0.0 | 0.0 | 0.00 | 0.00 | 0.00 | 61 | 1010.1 |
| 20260509014042 | 16 | 90 | 0.0 | 0.0 | 0.00 | 0.00 | 0.00 | 63 | 1010.3 |
| 20260509013539 | 16 | 90 | 0.0 | 0.0 | 0.00 | 0.00 | 0.00 | 61 | 1010.2 |
| 20260509013034 | 16 | 90 | 0.0 | 0.0 | 0.00 | 0.00 | 0.00 | 61 | 1010.0 |
| 20260509012532 | 16 | 89 | 0.0 | 0.0 | 0.00 | 0.00 | 0.00 | 62 | 1010.4 |
| 20260509012028 | 16 | 89 | 0.0 | 0.0 | 0.00 | 0.00 | 0.00 | 60 | 1010.4 |
| 20260509011526 | 16 | 289 | 3.2 | 3.2 | 0.00 | 0.00 | 0.00 | 59 | 1010.5 |
| 20260509011023 | 16 | 38 | 1.6 | 1.6 | 0.00 | 0.00 | 0.00 | 59 | 1010.6 |
| 20260509010521 | 16 | 263 | 0.0 | 0.0 | 0.00 | 0.00 | 0.00 | 64 | 1010.6 |
| 20260509010017 | 16 | 103 | 0.0 | 0.0 | 0.00 | 0.00 | 0.00 | 58 | 1010.3 |
| 20260509005515 | 16 | 103 | 0.0 | 0.0 | 0.00 | 0.00 | 0.00 | 57 | 1010.3 |
| 20260509005016 | 17 | 103 | 0.0 | 0.0 | 0.00 | 0.00 | 0.00 | 56 | 1010.4 |
| 20260509004513 | 17 | 103 | 0.0 | 0.0 | 0.00 | 0.00 | 0.00 | 55 | 1010.2 |
| 20260509004009 | 17 | 103 | 0.0 | 0.0 | 0.00 | 0.00 | 0.00 | 53 | 1010.0 |
| 20260509003508 | 17 | 103 | 0.0 | 0.0 | 0.00 | 0.00 | 0.00 | 53 | 1010.1 |
| 20260509003004 | 17 | 103 | 0.0 | 0.0 | 0.00 | 0.00 | 0.00 | 52 | 1010.1 |
| 20260509002503 | 17 | 103 | 0.0 | 0.0 | 0.00 | 0.00 | 0.00 | 52 | 1009.9 |
| 20260509001959 | 17 | 103 | 0.0 | 0.0 | 0.00 | 0.00 | 0.00 | 52 | 1009.9 |
| 20260509001456 | 17 | 103 | 0.0 | 0.0 | 0.00 | 0.00 | 0.00 | 52 | 1009.9 |
| 20260509000952 | 17 | 103 | 0.0 | 0.0 | 0.00 | 0.00 | 0.00 | 52 | 1010.2 |
| 20260509000451 | 17 | 113 | 0.0 | 0.0 | 0.00 | 0.00 | 0.00 | 52 | 1010.2 |
| 20260508235946 | 17 | 113 | 0.0 | 0.0 | 0.00 | 0.00 | 0.00 | 54 | 1010.3 |
| 20260508235444 | 17 | 113 | 0.0 | 0.0 | 0.00 | 0.00 | 0.00 | 53 | 1010.1 |
| 20260508234941 | 18 | 113 | 0.0 | 0.0 | 0.00 | 0.00 | 0.00 | 51 | 1009.9 |
| 20260508234438 | 18 | 113 | 0.0 | 0.0 | 0.00 | 0.00 | 0.00 | 50 | 1010.2 |
| 20260508233935 | 18 | 113 | 0.0 | 0.0 | 0.00 | 0.00 | 0.00 | 50 | 1009.9 |
| 20260508233435 | 18 | 113 | 0.0 | 0.0 | 0.00 | 0.00 | 0.00 | 50 | 1009.8 |
| 20260508232931 | 18 | 113 | 0.0 | 0.0 | 0.00 | 0.00 | 0.00 | 51 | 1009.8 |
| 20260508232428 | 18 | 113 | 0.0 | 0.0 | 0.00 | 0.00 | 0.00 | 51 | 1009.8 |
| 20260508231925 | 18 | 114 | 0.0 | 0.0 | 0.00 | 0.00 | 0.00 | 51 | 1010.0 |
| 20260508231422 | 18 | 114 | 0.0 | 0.0 | 0.00 | 0.00 | 0.00 | 52 | 1010.2 |
| 20260508230919 | 18 | 114 | 0.0 | 0.0 | 0.00 | 0.00 | 0.00 | 52 | 1010.2 |
| 20260508230415 | 18 | 114 | 0.0 | 0.0 | 0.00 | 0.00 | 0.00 | 51 | 1010.2 |
| 20260508225913 | 18 | 96 | 0.0 | 0.0 | 0.00 | 0.00 | 0.00 | 52 | 1010.1 |
| 20260508225409 | 18 | 95 | 0.0 | 0.0 | 0.00 | 0.00 | 0.00 | 52 | 1010.0 |
| 20260508224907 | 18 | 95 | 0.0 | 0.0 | 0.00 | 0.00 | 0.00 | 50 | 1010.0 |
| 20260508224404 | 18 | 107 | 0.0 | 1.6 | 0.00 | 0.00 | 0.00 | 48 | 1009.8 |
| 20260508223902 | 18 | 114 | 0.0 | 0.0 | 0.00 | 0.00 | 0.00 | 50 | 1009.8 |
| 20260508223400 | 18 | 115 | 0.0 | 1.6 | 0.00 | 0.00 | 0.00 | 48 | 1009.8 |
| 20260508222857 | 18 | 106 | 0.0 | 0.0 | 0.00 | 0.00 | 0.00 | 48 | 1009.8 |
| 20260508222354 | 19 | 103 | 0.0 | 1.6 | 0.00 | 0.00 | 0.00 | 47 | 1009.7 |
| 20260508221850 | 19 | 103 | 0.0 | 0.0 | 0.00 | 0.00 | 0.00 | 49 | 1009.6 |
| 20260508221346 | 19 | 93 | 0.0 | 1.6 | 0.00 | 0.00 | 0.00 | 48 | 1009.8 |
| 20260508220842 | 19 | 130 | 1.6 | 1.6 | 0.00 | 0.00 | 0.00 | 44 | 1009.8 |
| 20260508220339 | 20 | 13 | 4.8 | 8.0 | 0.00 | 0.00 | 0.00 | 45 | 1009.8 |
| 20260508215835 | 20 | 99 | 0.0 | 0.0 | 0.00 | 0.00 | 0.00 | 48 | 1009.7 |
| 20260508215332 | 20 | 112 | 0.0 | 0.0 | 0.00 | 0.00 | 0.00 | 44 | 1009.8 |
| 20260508214829 | 20 | 109 | 0.0 | 0.0 | 0.00 | 0.00 | 0.00 | 46 | 1009.6 |
| 20260508214326 | 20 | 131 | 1.6 | 1.6 | 0.00 | 0.00 | 0.00 | 44 | 1009.7 |
| 20260508213822 | 20 | 114 | 0.0 | 0.0 | 0.00 | 0.00 | 0.00 | 48 | 1009.6 |
| 20260508213319 | 20 | 114 | 0.0 | 0.0 | 0.00 | 0.00 | 0.00 | 48 | 1009.7 |
| 20260508212816 | 20 | 114 | 0.0 | 0.0 | 0.00 | 0.00 | 0.00 | 46 | 1009.7 |
| 20260508212312 | 20 | 108 | 0.0 | 1.6 | 0.00 | 0.00 | 0.00 | 43 | 1009.8 |
| 20260508211808 | 20 | 112 | 0.0 | 0.0 | 0.00 | 0.00 | 0.00 | 46 | 1009.8 |
| 20260508211304 | 20 | 122 | 1.6 | 1.6 | 0.00 | 0.00 | 0.00 | 46 | 1010.0 |
| 20260508210802 | 20 | 131 | 3.2 | 3.2 | 0.00 | 0.00 | 0.00 | 44 | 1009.9 |
| 20260508210258 | 20 | 106 | 0.0 | 0.0 | 0.00 | 0.00 | 0.00 | 48 | 1009.8 |
| 20260508205755 | 20 | 263 | 4.8 | 4.8 | 0.00 | 0.00 | 0.00 | 45 | 1010.2 |
| 20260508205251 | 20 | 98 | 0.0 | 0.0 | 0.00 | 0.00 | 0.00 | 46 | 1010.2 |
| 20260508204748 | 20 | 133 | 3.2 | 3.2 | 0.00 | 0.00 | 0.00 | 47 | 1010.7 |
| 20260508204244 | 20 | 57 | 3.2 | 3.2 | 0.00 | 0.00 | 0.00 | 41 | 1010.5 |
| 20260508203740 | 20 | 146 | 4.8 | 4.8 | 0.00 | 0.00 | 0.00 | 46 | 1010.5 |
| 20260508203237 | 20 | 108 | 1.6 | 1.6 | 0.00 | 0.00 | 0.00 | 47 | 1010.5 |
| 20260508202732 | 20 | 121 | 1.6 | 3.2 | 0.00 | 0.00 | 0.00 | 45 | 1010.7 |
| 20260508202230 | 20 | 274 | 6.4 | 8.0 | 0.00 | 0.00 | 0.00 | 44 | 1011.0 |
| 20260508201727 | 20 | 80 | 1.6 | 3.2 | 0.00 | 0.00 | 0.00 | 41 | 1010.9 |
| 20260508201223 | 20 | 109 | 1.6 | 3.2 | 0.00 | 0.00 | 0.00 | 42 | 1010.9 |
| 20260508200720 | 20 | 121 | 1.6 | 1.6 | 0.00 | 0.00 | 0.00 | 43 | 1011.1 |
| 20260508200217 | 20 | 258 | 3.2 | 3.2 | 0.00 | 0.00 | 0.00 | 44 | 1011.2 |
| 20260508195713 | 19 | 55 | 6.4 | 11.3 | 0.00 | 0.00 | 0.00 | 41 | 1011.0 |
| 20260508195209 | 19 | 145 | 3.2 | 4.8 | 0.00 | 0.00 | 0.00 | 44 | 1011.3 |
| 20260508194706 | 19 | 26 | 3.2 | 3.2 | 0.00 | 0.00 | 0.00 | 44 | 1011.4 |
| 20260508194203 | 19 | 132 | 1.6 | 1.6 | 0.00 | 0.00 | 0.00 | 46 | 1011.3 |
| 20260508193700 | 19 | 16 | 3.2 | 4.8 | 0.00 | 0.00 | 0.00 | 42 | 1011.2 |
| 20260508193157 | 19 | 84 | 3.2 | 3.2 | 0.00 | 0.00 | 0.00 | 44 | 1011.4 |
| 20260508192653 | 20 | 123 | 1.6 | 1.6 | 0.00 | 0.00 | 0.00 | 45 | 1011.4 |
| 20260508192151 | 20 | 160 | 4.8 | 4.8 | 0.00 | 0.00 | 0.00 | 46 | 1011.5 |
| 20260508191648 | 20 | 111 | 3.2 | 4.8 | 0.00 | 0.00 | 0.00 | 44 | 1011.4 |
| 20260508191144 | 20 | 93 | 1.6 | 1.6 | 0.00 | 0.00 | 0.00 | 45 | 1011.7 |
| 20260508190642 | 21 | 126 | 1.6 | 1.6 | 0.00 | 0.00 | 0.00 | 44 | 1011.7 |
| 20260508190138 | 21 | 359 | 4.8 | 4.8 | 0.00 | 0.00 | 0.00 | 42 | 1011.4 |
| 20260508185635 | 21 | 12 | 3.2 | 3.2 | 0.00 | 0.00 | 0.00 | 43 | 1011.5 |
| 20260508185132 | 21 | 288 | 6.4 | 9.7 | 0.00 | 0.00 | 0.00 | 39 | 1011.8 |
| 20260508184629 | 21 | 162 | 3.2 | 3.2 | 0.00 | 0.00 | 0.00 | 42 | 1011.8 |
| 20260508184126 | 21 | 248 | 8.0 | 9.7 | 0.00 | 0.00 | 0.00 | 40 | 1012.0 |
| 20260508183623 | 21 | 196 | 3.2 | 3.2 | 0.00 | 0.00 | 0.00 | 44 | 1011.9 |
| 20260508183119 | 21 | 277 | 4.8 | 4.8 | 0.00 | 0.00 | 0.00 | 43 | 1012.1 |
| 20260508182615 | 21 | 87 | 0.0 | 1.6 | 0.00 | 0.00 | 0.00 | 44 | 1012.1 |
| 20260508182112 | 20 | 160 | 3.2 | 4.8 | 0.00 | 0.00 | 0.00 | 42 | 1012.3 |
| 20260508181607 | 20 | 198 | 3.2 | 3.2 | 0.00 | 0.00 | 0.00 | 42 | 1012.5 |
| 20260508181105 | 21 | 221 | 4.8 | 4.8 | 0.00 | 0.00 | 0.00 | 40 | 1012.4 |
| 20260508180601 | 21 | 10 | 8.0 | 9.7 | 0.00 | 0.00 | 0.00 | 40 | 1012.5 |
| 20260508180058 | 21 | 280 | 6.4 | 8.0 | 0.00 | 0.00 | 0.00 | 42 | 1012.5 |
| 20260508175554 | 20 | 286 | 4.8 | 4.8 | 0.00 | 0.00 | 0.00 | 42 | 1012.6 |
| 20260508175052 | 21 | 138 | 3.2 | 3.2 | 0.00 | 0.00 | 0.00 | 45 | 1012.8 |
| 20260508174549 | 22 | 307 | 6.4 | 11.3 | 0.00 | 0.00 | 0.00 | 42 | 1012.6 |
| 20260508174046 | 22 | 246 | 6.4 | 8.0 | 0.00 | 0.00 | 0.00 | 45 | 1012.5 |
| 20260508173543 | 21 | 188 | 4.8 | 4.8 | 0.00 | 0.00 | 0.00 | 47 | 1012.8 |
| 20260508173038 | 20 | 163 | 1.6 | 3.2 | 0.00 | 0.00 | 0.00 | 44 | 1013.2 |
| 20260508172536 | 20 | 293 | 4.8 | 4.8 | 0.00 | 0.00 | 0.00 | 45 | 1013.0 |
| 20260508172033 | 20 | 68 | 3.2 | 3.2 | 0.00 | 0.00 | 0.00 | 46 | 1013.0 |
| 20260508171529 | 21 | 48 | 4.8 | 8.0 | 0.00 | 0.00 | 0.00 | 42 | 1013.1 |
| 20260508171026 | 21 | 283 | 6.4 | 8.0 | 0.00 | 0.00 | 0.00 | 41 | 1013.4 |
| 20260508170523 | 21 | 281 | 6.4 | 9.7 | 0.00 | 0.00 | 0.00 | 41 | 1013.0 |
| 20260508170020 | 20 | 248 | 6.4 | 9.7 | 0.00 | 0.00 | 0.00 | 42 | 1013.4 |
| 20260508165518 | 21 | 127 | 3.2 | 3.2 | 0.00 | 0.00 | 0.00 | 45 | 1013.6 |
| 20260508165014 | 20 | 101 | 1.6 | 3.2 | 0.00 | 0.00 | 0.00 | 51 | 1013.6 |
| 20260508164511 | 20 | 271 | 4.8 | 8.0 | 0.00 | 0.00 | 0.00 | 46 | 1013.8 |
| 20260508164007 | 20 | 255 | 4.8 | 8.0 | 0.00 | 0.00 | 0.00 | 46 | 1014.0 |
| 20260508163505 | 20 | 247 | 6.4 | 8.0 | 0.00 | 0.00 | 0.00 | 46 | 1013.9 |
| 20260508163001 | 20 | 293 | 6.4 | 8.0 | 0.00 | 0.00 | 0.00 | 47 | 1013.9 |
| 20260508162458 | 20 | 158 | 4.8 | 4.8 | 0.00 | 0.00 | 0.00 | 49 | 1014.1 |
| 20260508161955 | 20 | 113 | 3.2 | 3.2 | 0.00 | 0.00 | 0.00 | 53 | 1014.2 |
| 20260508161452 | 20 | 214 | 3.2 | 4.8 | 0.00 | 0.00 | 0.00 | 50 | 1014.2 |
| 20260508160949 | 20 | 335 | 6.4 | 11.3 | 0.00 | 0.00 | 0.00 | 46 | 1014.1 |
| 20260508160448 | 20 | 108 | 0.0 | 0.0 | 0.00 | 0.00 | 0.00 | 46 | 1014.2 |
| 20260508155944 | 19 | 265 | 6.4 | 8.0 | 0.00 | 0.00 | 0.00 | 45 | 1014.2 |
| 20260508155441 | 18 | 231 | 4.8 | 8.0 | 0.00 | 0.00 | 0.00 | 50 | 1014.4 |
| 20260508154938 | 18 | 285 | 4.8 | 9.7 | 0.00 | 0.00 | 0.00 | 49 | 1014.4 |
| 20260508154436 | 18 | 157 | 1.6 | 3.2 | 0.00 | 0.00 | 0.00 | 54 | 1014.3 |
| 20260508153932 | 18 | 69 | 3.2 | 4.8 | 0.00 | 0.00 | 0.00 | 49 | 1014.3 |
| 20260508153429 | 18 | 260 | 4.8 | 8.0 | 0.00 | 0.00 | 0.00 | 52 | 1014.7 |
| 20260508152925 | 18 | 258 | 4.8 | 8.0 | 0.00 | 0.00 | 0.00 | 51 | 1014.9 |
| 20260508152422 | 17 | 315 | 6.4 | 8.0 | 0.00 | 0.00 | 0.00 | 48 | 1014.8 |
| 20260508151919 | 17 | 236 | 4.8 | 4.8 | 0.00 | 0.00 | 0.00 | 49 | 1014.9 |
| 20260508151416 | 17 | 31 | 8.0 | 9.7 | 0.00 | 0.00 | 0.00 | 51 | 1015.0 |
| 20260508150912 | 18 | 263 | 8.0 | 11.3 | 0.00 | 0.00 | 0.00 | 49 | 1014.9 |
| 20260508150409 | 17 | 311 | 4.8 | 4.8 | 0.00 | 0.00 | 0.00 | 48 | 1014.8 |
| 20260508145905 | 17 | 275 | 9.7 | 11.3 | 0.00 | 0.00 | 0.00 | 48 | 1015.0 |
| 20260508145401 | 17 | 35 | 4.8 | 9.7 | 0.00 | 0.00 | 0.00 | 50 | 1014.8 |
| 20260508144858 | 16 | 218 | 4.8 | 8.0 | 0.00 | 0.00 | 0.00 | 52 | 1015.0 |
| 20260508144356 | 16 | 204 | 3.2 | 4.8 | 0.00 | 0.00 | 0.00 | 50 | 1015.1 |
| 20260508143853 | 16 | 297 | 4.8 | 8.0 | 0.00 | 0.00 | 0.00 | 50 | 1015.0 |
| 20260508143350 | 16 | 256 | 4.8 | 8.0 | 0.00 | 0.00 | 0.00 | 55 | 1015.0 |
| 20260508142847 | 16 | 253 | 4.8 | 8.0 | 0.00 | 0.00 | 0.00 | 53 | 1015.1 |
| 20260508142344 | 16 | 141 | 1.6 | 3.2 | 0.00 | 0.00 | 0.00 | 52 | 1015.1 |
| 20260508141840 | 15 | 154 | 3.2 | 3.2 | 0.00 | 0.00 | 0.00 | 50 | 1015.1 |
| 20260508141337 | 16 | 254 | 8.0 | 12.9 | 0.00 | 0.00 | 0.00 | 50 | 1015.3 |
| 20260508140835 | 15 | 102 | 0.0 | 1.6 | 0.00 | 0.00 | 0.00 | 54 | 1015.3 |
| 20260508140331 | 15 | 118 | 1.6 | 3.2 | 0.00 | 0.00 | 0.00 | 52 | 1015.1 |
| 20260508135827 | 15 | 116 | 1.6 | 1.6 | 0.00 | 0.00 | 0.00 | 55 | 1015.2 |
| 20260508135324 | 15 | 206 | 4.8 | 8.0 | 0.00 | 0.00 | 0.00 | 52 | 1015.2 |
| 20260508134820 | 15 | 302 | 6.4 | 9.7 | 0.00 | 0.00 | 0.00 | 52 | 1015.6 |
| 20260508134317 | 15 | 41 | 4.8 | 8.0 | 0.00 | 0.00 | 0.00 | 54 | 1015.2 |
| 20260508133813 | 15 | 93 | 1.6 | 3.2 | 0.00 | 0.00 | 0.00 | 54 | 1015.5 |
| 20260508133311 | 14 | 144 | 4.8 | 4.8 | 0.00 | 0.00 | 0.00 | 56 | 1015.5 |
| 20260508132808 | 14 | 269 | 6.4 | 8.0 | 0.00 | 0.00 | 0.00 | 52 | 1015.3 |
| 20260508132306 | 13 | 64 | 3.2 | 3.2 | 0.00 | 0.00 | 0.00 | 53 | 1015.4 |
| 20260508131802 | 13 | 279 | 6.4 | 9.7 | 0.00 | 0.00 | 0.00 | 52 | 1015.4 |
| 20260508131258 | 13 | 27 | 1.6 | 3.2 | 0.00 | 0.00 | 0.00 | 55 | 1015.4 |
| 20260508130754 | 13 | 323 | 3.2 | 3.2 | 0.00 | 0.00 | 0.00 | 53 | 1015.4 |
| 20260508130252 | 13 | 290 | 3.2 | 3.2 | 0.00 | 0.00 | 0.00 | 55 | 1015.4 |
| 20260508125748 | 13 | 32 | 4.8 | 4.8 | 0.00 | 0.00 | 0.00 | 53 | 1015.4 |
| 20260508125244 | 12 | 98 | 0.0 | 1.6 | 0.00 | 0.00 | 0.00 | 56 | 1015.3 |
| 20260508124742 | 12 | 267 | 4.8 | 8.0 | 0.00 | 0.00 | 0.00 | 55 | 1015.4 |
| 20260508124239 | 12 | 28 | 4.8 | 4.8 | 0.00 | 0.00 | 0.00 | 54 | 1015.2 |
| 20260508123737 | 12 | 115 | 3.2 | 3.2 | 0.00 | 0.00 | 0.00 | 55 | 1015.1 |
| 20260508123235 | 12 | 127 | 1.6 | 3.2 | 0.00 | 0.00 | 0.00 | 57 | 1015.2 |
| 20260508122731 | 12 | 123 | 1.6 | 1.6 | 0.00 | 0.00 | 0.00 | 57 | 1015.0 |
| 20260508122228 | 11 | 269 | 4.8 | 4.8 | 0.00 | 0.00 | 0.00 | 56 | 1015.1 |
| 20260508121726 | 11 | 229 | 4.8 | 8.0 | 0.00 | 0.00 | 0.00 | 57 | 1014.9 |
| 20260508121224 | 11 | 144 | 3.2 | 3.2 | 0.00 | 0.00 | 0.00 | 59 | 1015.1 |
| 20260508120721 | 11 | 137 | 3.2 | 3.2 | 0.00 | 0.00 | 0.00 | 61 | 1015.2 |
| 20260508120219 | 10 | 108 | 1.6 | 1.6 | 0.00 | 0.00 | 0.00 | 61 | 1015.1 |
| 20260508115716 | 10 | 100 | 1.6 | 3.2 | 0.00 | 0.00 | 0.00 | 61 | 1015.2 |
| 20260508115214 | 10 | 95 | 1.6 | 1.6 | 0.00 | 0.00 | 0.00 | 61 | 1015.1 |
| 20260508114710 | 10 | 97 | 0.0 | 0.0 | 0.00 | 0.00 | 0.00 | 64 | 1015.0 |
| 20260508114207 | 9 | 97 | 0.0 | 0.0 | 0.00 | 0.00 | 0.00 | 65 | 1014.8 |
| 20260508113703 | 9 | 91 | 1.6 | 3.2 | 0.00 | 0.00 | 0.00 | 63 | 1015.0 |
| 20260508113202 | 9 | 111 | 1.6 | 1.6 | 0.00 | 0.00 | 0.00 | 63 | 1014.8 |
| 20260508112657 | 9 | 113 | 0.0 | 0.0 | 0.00 | 0.00 | 0.00 | 64 | 1014.8 |
| 20260508112154 | 9 | 114 | 1.6 | 1.6 | 0.00 | 0.00 | 0.00 | 63 | 1014.7 |
| 20260508111651 | 9 | 114 | 1.6 | 1.6 | 0.00 | 0.00 | 0.00 | 63 | 1014.8 |
| 20260508111149 | 9 | 114 | 0.0 | 0.0 | 0.00 | 0.00 | 0.00 | 63 | 1014.7 |
| 20260508110646 | 9 | 113 | 0.0 | 0.0 | 0.00 | 0.00 | 0.00 | 64 | 1014.6 |
| 20260508110143 | 9 | 114 | 0.0 | 0.0 | 0.00 | 0.00 | 0.00 | 63 | 1014.4 |
| 20260508105638 | 9 | 104 | 1.6 | 3.2 | 0.00 | 0.00 | 0.00 | 62 | 1014.3 |
| 20260508105135 | 9 | 112 | 1.6 | 1.6 | 0.00 | 0.00 | 0.00 | 62 | 1014.6 |
| 20260508104632 | 9 | 116 | 1.6 | 1.6 | 0.00 | 0.00 | 0.00 | 62 | 1014.4 |
| 20260508104129 | 9 | 107 | 0.0 | 1.6 | 0.00 | 0.00 | 0.00 | 63 | 1014.6 |
| 20260508103626 | 9 | 105 | 0.0 | 0.0 | 0.00 | 0.00 | 0.00 | 62 | 1014.7 |
| 20260508103123 | 9 | 106 | 1.6 | 1.6 | 0.00 | 0.00 | 0.00 | 61 | 1014.4 |
| 20260508102620 | 10 | 101 | 1.6 | 1.6 | 0.00 | 0.00 | 0.00 | 62 | 1014.8 |
| 20260508102118 | 9 | 125 | 1.6 | 3.2 | 0.00 | 0.00 | 0.00 | 62 | 1014.6 |
| 20260508101615 | 9 | 122 | 0.0 | 1.6 | 0.00 | 0.00 | 0.00 | 62 | 1014.3 |
| 20260508101112 | 9 | 118 | 1.6 | 1.6 | 0.00 | 0.00 | 0.00 | 63 | 1014.2 |
| 20260508100610 | 9 | 117 | 0.0 | 1.6 | 0.00 | 0.00 | 0.00 | 63 | 1014.4 |
| 20260508100108 | 9 | 117 | 1.6 | 1.6 | 0.00 | 0.00 | 0.00 | 62 | 1014.7 |
| 20260508095604 | 9 | 120 | 1.6 | 1.6 | 0.00 | 0.00 | 0.00 | 62 | 1014.8 |
| 20260508095101 | 9 | 121 | 1.6 | 1.6 | 0.00 | 0.00 | 0.00 | 63 | 1014.6 |
| 20260508094558 | 9 | 122 | 1.6 | 1.6 | 0.00 | 0.00 | 0.00 | 63 | 1014.4 |
| 20260508094055 | 9 | 128 | 1.6 | 1.6 | 0.00 | 0.00 | 0.00 | 62 | 1014.7 |
| 20260508093552 | 9 | 128 | 1.6 | 1.6 | 0.00 | 0.00 | 0.00 | 63 | 1014.7 |
| 20260508093050 | 9 | 125 | 1.6 | 1.6 | 0.00 | 0.00 | 0.00 | 63 | 1014.6 |
| 20260508092547 | 9 | 123 | 1.6 | 1.6 | 0.00 | 0.00 | 0.00 | 63 | 1014.7 |
| 20260508092046 | 8 | 125 | 1.6 | 1.6 | 0.00 | 0.00 | 0.00 | 63 | 1014.6 |
| 20260508091542 | 8 | 116 | 1.6 | 1.6 | 0.00 | 0.00 | 0.00 | 64 | 1014.6 |
| 20260508091039 | 8 | 113 | 1.6 | 1.6 | 0.00 | 0.00 | 0.00 | 64 | 1014.4 |
| 20260508090537 | 8 | 101 | 1.6 | 1.6 | 0.00 | 0.00 | 0.00 | 63 | 1014.6 |
| 20260508090033 | 8 | 97 | 1.6 | 1.6 | 0.00 | 0.00 | 0.00 | 64 | 1014.8 |
| 20260508085530 | 8 | 89 | 1.6 | 3.2 | 0.00 | 0.00 | 0.00 | 63 | 1014.4 |
| 20260508085027 | 8 | 92 | 1.6 | 1.6 | 0.00 | 0.00 | 0.00 | 64 | 1014.3 |
| 20260508084524 | 8 | 92 | 1.6 | 1.6 | 0.00 | 0.00 | 0.00 | 65 | 1014.3 |
| 20260508084022 | 7 | 92 | 0.0 | 0.0 | 0.00 | 0.00 | 0.00 | 68 | 1014.7 |
| 20260508083519 | 7 | 92 | 0.0 | 0.0 | 0.00 | 0.00 | 0.00 | 68 | 1014.6 |
| 20260508083015 | 7 | 92 | 0.0 | 0.0 | 0.00 | 0.00 | 0.00 | 68 | 1014.4 |
| 20260508082511 | 7 | 92 | 0.0 | 0.0 | 0.00 | 0.00 | 0.00 | 68 | 1014.3 |
| 20260508082009 | 7 | 92 | 0.0 | 0.0 | 0.00 | 0.00 | 0.00 | 68 | 1014.3 |
| 20260508081506 | 7 | 92 | 0.0 | 0.0 | 0.00 | 0.00 | 0.00 | 68 | 1014.3 |
| 20260508081001 | 7 | 92 | 0.0 | 0.0 | 0.00 | 0.00 | 0.00 | 68 | 1014.4 |
| 20260508080500 | 7 | 92 | 0.0 | 0.0 | 0.00 | 0.00 | 0.00 | 67 | 1014.3 |
| 20260508075956 | 7 | 92 | 0.0 | 0.0 | 0.00 | 0.00 | 0.00 | 68 | 1014.2 |
| 20260508075453 | 7 | 92 | 0.0 | 0.0 | 0.00 | 0.00 | 0.00 | 68 | 1014.4 |
| 20260508074951 | 7 | 92 | 0.0 | 0.0 | 0.00 | 0.00 | 0.00 | 68 | 1014.3 |
| 20260508074449 | 7 | 92 | 0.0 | 0.0 | 0.00 | 0.00 | 0.00 | 69 | 1014.6 |
| 20260508073945 | 7 | 92 | 0.0 | 0.0 | 0.00 | 0.00 | 0.00 | 69 | 1014.6 |
| 20260508073443 | 7 | 92 | 0.0 | 0.0 | 0.00 | 0.00 | 0.00 | 69 | 1014.6 |
| 20260508072940 | 7 | 92 | 0.0 | 0.0 | 0.00 | 0.00 | 0.00 | 69 | 1014.6 |
| 20260508072436 | 7 | 92 | 0.0 | 0.0 | 0.00 | 0.00 | 0.00 | 69 | 1014.4 |
| 20260508071933 | 7 | 92 | 0.0 | 0.0 | 0.00 | 0.00 | 0.00 | 69 | 1014.4 |
| 20260508071431 | 7 | 92 | 0.0 | 0.0 | 0.00 | 0.00 | 0.00 | 70 | 1014.6 |
| 20260508070929 | 7 | 92 | 0.0 | 0.0 | 0.00 | 0.00 | 0.00 | 69 | 1014.4 |
| 20260508070426 | 7 | 92 | 0.0 | 0.0 | 0.00 | 0.00 | 0.00 | 68 | 1014.9 |
| 20260508065924 | 7 | 92 | 0.0 | 0.0 | 0.00 | 0.00 | 0.00 | 68 | 1014.9 |
| 20260508065422 | 7 | 92 | 0.0 | 0.0 | 0.00 | 0.00 | 0.00 | 68 | 1014.7 |
| 20260508064920 | 7 | 92 | 0.0 | 0.0 | 0.00 | 0.00 | 0.00 | 67 | 1014.7 |
| 20260508064416 | 7 | 92 | 0.0 | 0.0 | 0.00 | 0.00 | 0.00 | 66 | 1014.7 |
| 20260508063914 | 7 | 92 | 0.0 | 0.0 | 0.00 | 0.00 | 0.00 | 66 | 1015.0 |
| 20260508063412 | 7 | 92 | 0.0 | 0.0 | 0.00 | 0.00 | 0.00 | 67 | 1015.1 |
| 20260508062908 | 7 | 92 | 0.0 | 0.0 | 0.00 | 0.00 | 0.00 | 67 | 1015.0 |
| 20260508062401 | 7 | 92 | 0.0 | 0.0 | 0.00 | 0.00 | 0.00 | 66 | 1015.2 |
| 20260508061858 | 7 | 92 | 0.0 | 0.0 | 0.00 | 0.00 | 0.00 | 66 | 1015.3 |
| 20260508061355 | 7 | 92 | 0.0 | 0.0 | 0.00 | 0.00 | 0.00 | 66 | 1015.1 |
| 20260508060851 | 8 | 92 | 0.0 | 0.0 | 0.00 | 0.00 | 0.00 | 65 | 1015.4 |
| 20260508060349 | 8 | 92 | 0.0 | 0.0 | 0.00 | 0.00 | 0.00 | 66 | 1015.3 |
| 20260508055849 | 8 | 92 | 0.0 | 0.0 | 0.00 | 0.00 | 0.00 | 66 | 1015.4 |
| 20260508055342 | 8 | 92 | 0.0 | 0.0 | 0.00 | 0.00 | 0.00 | 65 | 1015.3 |
| 20260508054838 | 8 | 92 | 0.0 | 0.0 | 0.00 | 0.00 | 0.00 | 65 | 1015.3 |
| 20260508054336 | 8 | 92 | 0.0 | 0.0 | 0.00 | 0.00 | 0.00 | 64 | 1015.2 |
| 20260508053832 | 8 | 92 | 0.0 | 0.0 | 0.00 | 0.00 | 0.00 | 64 | 1015.2 |
| 20260508053330 | 8 | 92 | 0.0 | 0.0 | 0.00 | 0.00 | 0.00 | 65 | 1015.4 |
| 20260508052827 | 8 | 92 | 0.0 | 0.0 | 0.00 | 0.00 | 0.00 | 64 | 1015.3 |
| 20260508052324 | 8 | 92 | 0.0 | 0.0 | 0.00 | 0.00 | 0.00 | 64 | 1015.3 |
| 20260508051820 | 8 | 92 | 0.0 | 0.0 | 0.00 | 0.00 | 0.00 | 64 | 1015.2 |
| 20260508051316 | 8 | 92 | 0.0 | 0.0 | 0.00 | 0.00 | 0.00 | 65 | 1015.1 |
| 20260508050812 | 8 | 92 | 0.0 | 0.0 | 0.00 | 0.00 | 0.00 | 65 | 1015.1 |
| 20260508050310 | 8 | 92 | 0.0 | 0.0 | 0.00 | 0.00 | 0.00 | 65 | 1015.4 |
| 20260508045805 | 8 | 92 | 0.0 | 0.0 | 0.00 | 0.00 | 0.00 | 63 | 1015.0 |
| 20260508045306 | 8 | 92 | 0.0 | 0.0 | 0.00 | 0.00 | 0.00 | 62 | 1015.2 |
| 20260508044801 | 8 | 92 | 0.0 | 0.0 | 0.00 | 0.00 | 0.00 | 62 | 1015.1 |
| 20260508044257 | 8 | 92 | 0.0 | 0.0 | 0.00 | 0.00 | 0.00 | 62 | 1015.1 |
| 20260508043753 | 8 | 92 | 0.0 | 0.0 | 0.00 | 0.00 | 0.00 | 62 | 1014.9 |
| 20260508043250 | 8 | 92 | 0.0 | 0.0 | 0.00 | 0.00 | 0.00 | 63 | 1015.3 |
| 20260508042747 | 8 | 92 | 0.0 | 0.0 | 0.00 | 0.00 | 0.00 | 64 | 1015.1 |
| 20260508042244 | 8 | 92 | 0.0 | 0.0 | 0.00 | 0.00 | 0.00 | 62 | 1015.3 |
| 20260508041741 | 8 | 92 | 0.0 | 0.0 | 0.00 | 0.00 | 0.00 | 63 | 1015.2 |
| 20260508041238 | 8 | 92 | 0.0 | 0.0 | 0.00 | 0.00 | 0.00 | 62 | 1015.3 |
| 20260508040734 | 8 | 92 | 0.0 | 0.0 | 0.00 | 0.00 | 0.00 | 63 | 1015.0 |
| 20260508040232 | 8 | 92 | 0.0 | 0.0 | 0.00 | 0.00 | 0.00 | 62 | 1015.1 |
| 20260508035729 | 8 | 92 | 0.0 | 0.0 | 0.00 | 0.00 | 0.00 | 62 | 1015.0 |
| 20260508035226 | 8 | 92 | 0.0 | 0.0 | 0.00 | 0.00 | 0.00 | 62 | 1014.9 |
| 20260508034723 | 9 | 92 | 0.0 | 0.0 | 0.00 | 0.00 | 0.00 | 61 | 1015.1 |